GW0861 Weather Reports


Display with metric or nautical units.
time (UTC)temp
F
wind
direction
speed
MPH
gust
MPH
rain 1hr
in
rain 24hr
in
rain mn
in
humidity
%
barometer
mb
20260508193525 53 306 2.0 5.0 0.00 0.00 0.00 60 1010.4
20260508193024 53 313 1.0 14.0 0.00 0.00 0.00 59 1010.6
20260508192525 53 314 6.0 14.0 0.00 0.00 0.00 57 1010.6
20260508192026 53 278 9.0 14.0 0.00 0.00 0.00 58 1010.6
20260508191532 53 237 11.0 18.0 0.00 0.00 0.00 60 1010.7
20260508191524 53 257 9.0 16.0 0.00 0.00 0.00 57 1010.7
20260508190524 53 231 10.0 18.0 0.00 0.00 0.00 57 1010.6
20260508190024 53 285 12.0 18.0 0.00 0.00 0.00 58 1010.7
20260508185524 53 243 11.0 17.0 0.00 0.00 0.00 59 1010.8
20260508185024 53 276 7.0 13.0 0.00 0.00 0.00 58 1010.7
20260508184524 53 281 7.0 17.0 0.00 0.00 0.00 59 1010.7
20260508184025 53 206 7.0 17.0 0.00 0.00 0.00 60 1010.8
20260508183525 53 252 8.0 15.0 0.00 0.00 0.00 65 1011.0
20260508183025 52 343 5.0 9.0 0.00 0.00 0.00 70 1011.0
20260508182525 50 289 4.0 9.0 0.00 0.00 0.00 68 1011.0
20260508182024 50 282 4.0 10.0 0.00 0.00 0.00 67 1011.1
20260508181525 50 285 6.0 11.0 0.00 0.00 0.00 66 1011.2
20260508181026 50 226 4.0 11.0 0.00 0.00 0.00 65 1011.2
20260508180524 50 310 6.0 9.0 0.00 0.00 0.00 64 1011.4
20260508180025 50 302 3.0 7.0 0.00 0.00 0.00 65 1011.3
20260508175524 50 303 3.0 5.0 0.00 0.00 0.00 64 1011.2
20260508175025 50 276 2.0 7.0 0.00 0.00 0.00 64 1011.4
20260508174524 50 213 3.0 7.0 0.00 0.00 0.00 67 1011.4
20260508174025 50 245 3.0 9.0 0.00 0.00 0.00 66 1011.4
20260508173524 50 254 1.0 11.0 0.00 0.00 0.00 66 1011.5
20260508173025 50 274 4.0 12.0 0.00 0.00 0.00 64 1011.6
20260508172525 51 272 8.0 12.0 0.00 0.00 0.00 66 1011.6
20260508172026 51 292 2.0 12.0 0.00 0.00 0.00 67 1011.6
20260508171524 51 312 3.0 12.0 0.00 0.00 0.00 68 1011.7
20260508171030 50 1 5.0 9.0 0.00 0.00 0.00 68 1011.6
20260508170300 49 343 5.0 9.0 0.00 0.00 0.00 68 1011.7
20260508165759 49 319 5.0 9.0 0.00 0.00 0.00 68 1011.7
20260508165024 49 1 2.0 10.0 0.00 0.00 0.00 70 1011.7
20260508164524 49 286 4.0 10.0 0.00 0.00 0.00 69 1011.7
20260508164025 49 302 4.0 15.0 0.00 0.00 0.00 69 1011.7
20260508163524 49 323 5.0 15.0 0.00 0.00 0.00 70 1011.8
20260508163025 49 303 5.0 14.0 0.00 0.00 0.00 71 1011.8
20260508162525 49 293 3.0 10.0 0.00 0.00 0.00 71 1012.0
20260508162025 49 292 4.0 13.0 0.00 0.00 0.00 70 1011.9
20260508161525 48 281 3.0 14.0 0.00 0.00 0.00 71 1012.1
20260508161255 48 278 9.0 14.0 0.00 0.00 0.00 73 1012.0
20260508160523 48 264 7.0 13.0 0.00 0.00 0.00 74 1012.0
20260508160024 48 49 5.0 13.0 0.00 0.00 0.00 72 1012.2
20260508155524 48 323 8.0 20.0 0.00 0.00 0.00 76 1012.0
20260508155024 47 261 11.0 20.0 0.00 0.00 0.00 75 1012.0
20260508154759 47 264 6.0 13.0 0.00 0.00 0.00 75 1011.9
20260508154300 47 272 6.0 13.0 0.00 0.00 0.00 76 1011.9
20260508153524 47 298 8.0 13.0 0.00 0.00 0.00 76 1011.9
20260508153024 47 285 3.0 11.0 0.00 0.00 0.00 76 1011.9
20260508152747 47 209 3.0 11.0 0.00 0.00 0.00 79 1011.8
20260508151025 46 327 3.0 10.0 0.00 0.00 0.00 77 1012.0
20260508150802 46 300 5.0 12.0 0.00 0.00 0.00 79 1012.0
20260508150307 45 189 4.0 12.0 0.00 0.00 0.00 80 1011.8
20260508145306 44 330 3.0 5.0 0.00 0.00 0.00 79 1011.9
20260508144023 44 350 4.0 9.0 0.00 0.00 0.00 78 1011.9
20260508143525 44 293 4.0 7.0 0.00 0.00 0.00 79 1011.9
20260508143025 44 31 4.0 7.0 0.00 0.00 0.00 79 1011.7
20260508142800 44 319 3.0 7.0 0.00 0.00 0.00 79 1011.6
20260508142024 44 0 2.0 5.0 0.00 0.00 0.00 79 1011.5
20260508141546 44 306 3.0 14.0 0.00 0.00 0.00 78 1011.5
20260508141538 44 276 1.0 9.0 0.00 0.00 0.00 79 1011.5
20260508140524 44 296 7.0 14.0 0.00 0.00 0.00 78 1011.4
20260508140024 44 281 6.0 12.0 0.00 0.00 0.00 79 1011.4
20260508135551 42 276 4.0 6.0 0.00 0.00 0.00 82 1011.3
20260508135543 43 274 4.0 6.0 0.00 0.00 0.00 80 1011.4
20260508134524 42 314 1.0 5.0 0.00 0.00 0.00 81 1011.4
20260508134024 42 292 2.0 4.0 0.00 0.00 0.00 83 1011.5
20260508133800 41 271 1.0 5.0 0.00 0.00 0.00 82 1011.5
20260508133026 41 303 2.0 5.0 0.00 0.00 0.00 82 1011.4
20260508132524 41 286 3.0 5.0 0.00 0.00 0.00 82 1011.3
20260508132024 41 300 3.0 5.0 0.00 0.00 0.00 82 1011.4
20260508131524 40 320 3.0 5.0 0.00 0.00 0.00 83 1011.4
20260508131025 40 296 1.0 4.0 0.00 0.00 0.00 83 1011.1
20260508130523 40 302 2.0 4.0 0.00 0.00 0.00 83 1011.3
20260508130024 40 340 2.0 5.0 0.00 0.00 0.00 82 1011.4
20260508125524 40 231 2.0 5.0 0.00 0.00 0.00 83 1011.3
20260508125023 40 189 3.0 5.0 0.00 0.00 0.00 85 1011.1
20260508124524 40 179 2.0 4.0 0.00 0.00 0.00 84 1011.1
20260508124024 39 179 2.0 4.0 0.00 0.00 0.00 85 1011.1
20260508123524 39 168 2.0 4.0 0.00 0.00 0.00 85 1011.0
20260508123024 39 180 2.0 4.0 0.00 0.00 0.00 85 1011.0
20260508122759 39 168 3.0 4.0 0.00 0.00 0.00 84 1011.0
20260508122023 38 209 3.0 5.0 0.00 0.00 0.00 84 1011.0
20260508121524 39 180 4.0 5.0 0.00 0.00 0.00 85 1010.9
20260508121023 38 133 4.0 5.0 0.00 0.00 0.00 84 1011.0
20260508120524 38 161 3.0 4.0 0.00 0.00 0.00 84 1011.0
20260508120258 38 168 2.0 3.0 0.00 0.00 0.00 83 1011.1
20260508115524 38 110 0.0 0.0 0.00 0.00 0.00 83 1011.1
20260508115301 38 244 0.0 2.0 0.00 0.00 0.00 82 1011.1
20260508114758 38 354 0.0 2.0 0.00 0.00 0.00 82 1011.2
20260508114024 38 341 0.0 3.0 0.00 0.00 0.00 82 1011.3
20260508113800 38 261 2.0 3.0 0.00 0.00 0.00 83 1011.3
20260508113024 39 154 1.0 3.0 0.00 0.00 0.00 83 1011.2
20260508112523 38 142 2.0 3.0 0.00 0.00 0.00 84 1011.0
20260508112024 38 134 0.0 3.0 0.00 0.00 0.00 84 1011.0
20260508111525 38 135 2.0 4.0 0.00 0.00 0.00 85 1010.9
20260508111023 38 151 3.0 4.0 0.00 0.00 0.00 85 1010.9
20260508110523 38 159 2.0 4.0 0.00 0.00 0.00 85 1010.9
20260508110040 37 185 0.0 2.0 0.00 0.00 0.00 84 1010.8
20260508105023 37 212 1.0 4.0 0.00 0.00 0.00 84 1010.9
20260508104524 37 210 2.0 4.0 0.00 0.00 0.00 83 1010.9
20260508104024 37 204 2.0 4.0 0.00 0.00 0.00 83 1010.9
20260508103800 37 186 2.0 4.0 0.00 0.00 0.00 83 1010.8
20260508103024 37 238 1.0 3.0 0.00 0.00 0.00 83 1010.8
20260508102800 37 238 1.0 3.0 0.00 0.00 0.00 83 1010.9
20260508102306 37 238 2.0 3.0 0.00 0.00 0.00 83 1010.9
20260508101523 37 238 1.0 3.0 0.00 0.00 0.00 84 1010.9
20260508101024 37 276 1.0 2.0 0.00 0.00 0.00 84 1010.9
20260508100524 37 268 0.0 1.0 0.00 0.00 0.00 84 1010.8
20260508100024 37 268 0.0 4.0 0.00 0.00 0.00 84 1010.8
20260508095524 37 268 1.0 4.0 0.00 0.00 0.00 84 1010.9
20260508095023 37 268 3.0 4.0 0.00 0.00 0.00 84 1011.0
20260508094523 37 262 3.0 4.0 0.00 0.00 0.00 84 1011.2
20260508094024 37 250 3.0 5.0 0.00 0.00 0.00 84 1011.1
20260508093524 37 286 3.0 5.0 0.00 0.00 0.00 84 1011.1
20260508093023 37 286 3.0 5.0 0.00 0.00 0.00 84 1011.2
20260508092523 37 286 3.0 5.0 0.00 0.00 0.00 84 1011.1
20260508092300 37 286 3.0 4.0 0.00 0.00 0.00 83 1011.2
20260508091522 37 286 2.0 5.0 0.00 0.00 0.00 83 1011.3
20260508091023 37 310 4.0 5.0 0.00 0.00 0.00 83 1011.4
20260508090523 37 279 3.0 4.0 0.00 0.00 0.00 83 1011.2
20260508090023 37 279 2.0 3.0 0.00 0.00 0.00 83 1011.2
20260508085524 37 279 1.0 4.0 0.00 0.00 0.00 83 1011.2
20260508085023 37 279 2.0 5.0 0.00 0.00 0.00 83 1011.2
20260508084524 37 279 4.0 5.0 0.00 0.00 0.00 83 1011.2
20260508084024 37 296 4.0 5.0 0.00 0.00 0.00 83 1011.2
20260508083523 36 276 3.0 5.0 0.00 0.00 0.00 83 1011.2
20260508083024 36 262 3.0 5.0 0.00 0.00 0.00 82 1011.2
20260508082524 36 275 3.0 6.0 0.00 0.00 0.00 82 1011.1
20260508082023 36 275 5.0 6.0 0.00 0.00 0.00 82 1011.1
20260508081524 37 275 5.0 7.0 0.00 0.00 0.00 82 1011.0
20260508081301 37 275 5.0 7.0 0.00 0.00 0.00 81 1010.9
20260508080523 37 275 5.0 7.0 0.00 0.00 0.00 81 1011.0
20260508080023 37 283 5.0 7.0 0.00 0.00 0.00 81 1011.0
20260508075523 37 286 5.0 7.0 0.00 0.00 0.00 80 1011.1
20260508075023 37 282 6.0 9.0 0.00 0.00 0.00 80 1011.1
20260508074523 37 274 6.0 9.0 0.00 0.00 0.00 80 1011.1
20260508074023 37 281 5.0 7.0 0.00 0.00 0.00 79 1011.0
20260508073524 38 282 6.0 7.0 0.00 0.00 0.00 79 1010.9
20260508073023 38 275 5.0 5.0 0.00 0.00 0.00 78 1011.0
20260508072542 38 281 5.0 9.0 0.00 0.00 0.00 78 1011.0
20260508072536 38 279 4.0 6.0 0.00 0.00 0.00 78 1010.9
20260508071523 38 286 6.0 9.0 0.00 0.00 0.00 77 1011.0
20260508071023 38 276 6.0 7.0 0.00 0.00 0.00 77 1011.0
20260508070523 38 265 4.0 6.0 0.00 0.00 0.00 76 1010.9
20260508070025 38 259 4.0 6.0 0.00 0.00 0.00 76 1011.0
20260508065523 39 293 4.0 7.0 0.00 0.00 0.00 76 1010.8
20260508065306 39 264 4.0 10.0 0.00 0.00 0.00 76 1011.0
20260508064523 39 268 5.0 10.0 0.00 0.00 0.00 76 1011.1
20260508064023 39 254 5.0 6.0 0.00 0.00 0.00 75 1011.0
20260508063523 39 264 4.0 6.0 0.00 0.00 0.00 76 1011.1
20260508063024 39 275 3.0 7.0 0.00 0.00 0.00 76 1011.1
20260508062524 39 306 5.0 10.0 0.00 0.00 0.00 75 1011.2
20260508062023 39 278 7.0 11.0 0.00 0.00 0.00 75 1011.3
20260508061523 39 276 7.0 11.0 0.00 0.00 0.00 75 1011.3
20260508061024 39 274 6.0 10.0 0.00 0.00 0.00 75 1011.2
20260508060524 39 288 7.0 11.0 0.00 0.00 0.00 75 1011.2
20260508060023 39 271 7.0 11.0 0.00 0.00 0.00 75 1011.2
20260508055524 39 272 5.0 9.0 0.00 0.00 0.00 75 1011.1
20260508055025 39 286 6.0 10.0 0.00 0.00 0.00 75 1011.2
20260508054522 39 289 6.0 10.0 0.00 0.00 0.00 74 1011.1
20260508054022 40 293 6.0 9.0 0.00 0.00 0.00 74 1011.1
20260508053523 40 282 6.0 10.0 0.00 0.00 0.00 74 1011.2
20260508053023 40 286 6.0 10.0 0.00 0.00 0.00 74 1011.2
20260508052523 40 281 5.0 9.0 0.00 0.00 0.00 73 1011.2
20260508052023 40 289 6.0 9.0 0.00 0.00 0.00 73 1011.1
20260508051523 40 275 5.0 9.0 0.00 0.00 0.00 73 1011.1
20260508051023 40 285 5.0 9.0 0.00 0.00 0.00 72 1011.1
20260508050801 41 266 6.0 11.0 0.00 0.00 0.00 72 1011.1
20260508050025 41 286 6.0 12.0 0.00 0.00 0.00 72 1011.1
20260508045523 41 272 7.0 12.0 0.00 0.00 0.00 72 1011.1
20260508045023 41 310 7.0 10.0 0.00 0.00 0.00 72 1011.1
20260508044525 41 275 7.0 10.0 0.00 0.00 0.00 72 1011.1
20260508044025 41 288 7.0 10.0 0.00 0.00 0.00 72 1011.1
20260508043525 41 289 7.0 10.0 0.00 0.00 0.00 72 1011.0
20260508043022 41 278 7.0 13.0 0.00 0.00 0.00 71 1011.0
20260508042548 41 299 6.0 11.0 0.00 0.00 0.00 71 1011.0
20260508042540 41 283 8.0 13.0 0.00 0.00 0.00 71 1011.0
20260508041800 41 290 6.0 11.0 0.00 0.00 0.00 71 1011.0
20260508041023 41 303 7.0 10.0 0.00 0.00 0.00 70 1011.0
20260508040523 42 268 6.0 10.0 0.00 0.00 0.00 70 1010.9
20260508040023 42 262 5.0 11.0 0.00 0.00 0.00 70 1010.9
20260508035523 42 293 7.0 11.0 0.00 0.00 0.00 70 1010.9
20260508035519 42 283 7.0 10.0 0.00 0.00 0.00 69 1010.9
20260508032025 44 298 4.0 9.0 0.00 0.00 0.00 70 1010.8
20260508032011 44 276 4.0 6.0 0.00 0.00 0.00 70 1010.9
20260508030523 44 264 2.0 9.0 0.00 0.00 0.00 71 1010.9
20260508030259 44 302 5.0 9.0 0.00 0.00 0.00 71 1011.0
20260508025523 44 295 3.0 10.0 0.00 0.00 0.00 71 1011.0
20260508025023 44 305 3.0 10.0 0.00 0.00 0.00 72 1010.9
20260508024523 44 295 6.0 10.0 0.00 0.00 0.00 72 1010.9
20260508024259 44 255 6.0 10.0 0.00 0.00 0.00 71 1010.7
20260508023757 44 292 6.0 10.0 0.00 0.00 0.00 72 1010.7
20260508023023 44 275 4.0 6.0 0.00 0.00 0.00 70 1010.8
20260508022523 44 302 2.0 10.0 0.00 0.00 0.00 70 1010.8
20260508022023 44 226 5.0 24.0 0.00 0.00 0.00 72 1010.8
20260508021800 44 247 5.0 24.0 0.00 0.00 0.00 71 1010.8
20260508021023 44 247 9.0 17.0 0.00 0.00 0.00 68 1010.9
20260508020802 44 278 6.0 13.0 0.00 0.00 0.00 69 1010.7
20260508020023 44 235 5.0 20.0 0.00 0.00 0.00 69 1010.7
20260508015523 45 257 7.0 20.0 0.00 0.00 0.00 71 1010.7
20260508015022 45 316 13.0 18.0 0.00 0.00 0.00 71 1010.6
20260508014523 45 298 5.0 11.0 0.00 0.00 0.00 72 1010.5
20260508014023 45 197 1.0 3.0 0.00 0.00 0.00 71 1010.4
20260508013522 46 68 1.0 5.0 0.00 0.00 0.00 72 1010.2
20260508013032 46 302 6.0 16.0 0.00 0.00 0.00 69 1010.1
20260508013026 46 296 1.0 11.0 0.00 0.00 0.00 70 1010.1
20260508012023 47 288 11.0 16.0 0.00 0.00 0.00 65 1010.0
20260508011522 47 303 3.0 19.0 0.00 0.00 0.00 66 1010.0
20260508011518 47 266 4.0 19.0 0.00 0.00 0.00 66 1009.7
20260508010524 48 279 6.0 14.0 0.00 0.00 0.00 64 1009.7
20260508010023 48 298 1.0 3.0 0.00 0.00 0.00 64 1009.5
20260508005523 48 298 0.0 3.0 0.00 0.00 0.00 63 1009.5
20260508005022 48 286 0.0 3.0 0.00 0.00 0.00 62 1009.3
20260508004523 48 286 0.0 3.0 0.00 0.00 0.00 61 1009.2
20260508004023 48 286 1.0 3.0 0.00 0.00 0.00 63 1009.1
20260508003800 48 286 1.0 5.0 0.00 0.00 0.00 62 1009.1
20260508003023 48 319 2.0 5.0 0.00 0.00 0.00 62 1009.0
20260508002758 49 307 2.0 5.0 0.00 0.00 0.00 62 1009.1
20260508002024 49 302 2.0 5.0 0.00 0.00 0.00 62 1009.0
20260508001522 49 307 2.0 6.0 0.00 0.00 0.00 61 1009.0
20260508001023 49 286 2.0 6.0 0.00 0.00 0.00 60 1009.0
20260508000522 49 288 2.0 5.0 0.00 0.00 0.00 61 1008.9
20260508000023 49 264 3.0 6.0 0.00 0.00 0.00 61 1008.9
20260507235522 49 329 3.0 7.0 0.00 0.00 0.00 59 1008.9
20260507235023 49 354 3.0 7.0 0.00 0.00 0.00 61 1008.9
20260507234523 50 288 3.0 6.0 0.00 0.00 0.00 61 1008.8
20260507234227 50 331 4.0 10.0 0.00 0.00 0.00 58 1008.8
20260507234023 50 279 2.0 10.0 0.00 0.00 0.00 61 1008.9
20260507233022 50 298 3.0 7.0 0.00 0.00 0.00 59 1008.8
20260507232522 51 282 3.0 7.0 0.00 0.00 0.00 59 1008.8
20260507232026 51 307 3.0 7.0 0.00 0.00 0.00 59 1008.8
20260507230522 51 298 2.0 9.0 0.00 0.00 0.00 57 1008.8
20260507230022 51 320 1.0 9.0 0.00 0.00 0.00 58 1008.8
20260507225522 51 300 2.0 7.0 0.00 0.00 0.00 56 1008.8
20260507225022 51 309 2.0 7.0 0.00 0.00 0.00 57 1008.8
20260507224522 52 309 2.0 6.0 0.00 0.00 0.00 58 1008.9
20260507224304 52 307 2.0 10.0 0.00 0.00 0.00 56 1008.8
20260507224300 52 282 3.0 10.0 0.00 0.00 0.00 57 1008.8
20260507223022 52 296 3.0 5.0 0.00 0.00 0.00 58 1008.8
20260507222523 52 314 2.0 6.0 0.00 0.00 0.00 57 1008.8
20260507222023 52 286 2.0 9.0 0.00 0.00 0.00 55 1008.8
20260507221758 52 276 3.0 9.0 0.00 0.00 0.00 54 1008.8
20260507221514 52 340 3.0 10.0 0.00 0.00 0.00 54 1008.8
20260507220521 52 305 4.0 10.0 0.00 0.00 0.00 51 1008.8
20260507220245 53 310 3.0 9.0 0.00 0.00 0.00 56 1008.7
20260507215532 53 307 4.0 9.0 0.00 0.00 0.00 53 1008.8
20260507215022 53 293 2.0 9.0 0.00 0.00 0.00 56 1008.8
20260507214522 53 251 3.0 10.0 0.00 0.00 0.00 54 1008.8
20260507214508 53 245 2.0 11.0 0.00 0.00 0.00 55 1008.7
20260507213315 53 310 3.0 9.0 0.00 0.00 0.00 52 1008.7
20260507212522 53 314 3.0 9.0 0.00 0.00 0.00 52 1008.8
20260507212022 53 309 5.0 12.0 0.00 0.00 0.00 52 1008.7
20260507211525 54 303 4.0 12.0 0.00 0.00 0.00 51 1008.7
20260507211520 54 324 5.0 14.0 0.00 0.00 0.00 52 1008.7
20260507210749 54 276 7.0 19.0 0.00 0.00 0.00 52 1008.6
20260507210717 54 285 9.0 19.0 0.00 0.00 0.00 52 1008.7
20260507205022 53 299 2.0 7.0 0.00 0.00 0.00 57 1008.7
20260507204522 53 283 4.0 12.0 0.00 0.00 0.00 52 1008.8
20260507204244 53 323 5.0 12.0 0.00 0.00 0.00 53 1008.8
20260507203523 53 331 2.0 10.0 0.00 0.00 0.00 52 1008.8
20260507203022 54 312 5.0 10.0 0.00 0.00 0.00 53 1008.9
20260507202522 54 265 2.0 9.0 0.00 0.00 0.00 54 1008.9
20260507202113 54 286 3.0 14.0 0.00 0.00 0.00 51 1008.7
20260507202022 54 307 3.0 9.0 0.00 0.00 0.00 53 1008.8
20260507201023 54 306 5.0 16.0 0.00 0.00 0.00 53 1008.7
20260507200522 54 295 9.0 16.0 0.00 0.00 0.00 52 1008.7
20260507200022 54 264 8.0 16.0 0.00 0.00 0.00 50 1008.8
20260507195522 54 269 10.0 16.0 0.00 0.00 0.00 49 1008.9
20260507195513 54 307 5.0 10.0 0.00 0.00 0.00 52 1008.9
20260507194916 54 268 5.0 11.0 0.00 0.00 0.00 50 1009.1
20260507194023 54 285 6.0 14.0 0.00 0.00 0.00 52 1009.1